Orbital Elements at Epoch 2459200.5 (2020-Dec-17.0) TDB
Reference: JPL 18 (heliocentric ecliptic J2000)
Element | Value | Uncertainty (1-sigma) | Units |
e | .3588038354815302 | 2.8162e-08 | |
a | 2.15793922425804 | 4.5293e-09 | au |
q | 1.383662353858218 | 6.1598e-08 | au |
i | 4.784419355496685 | 3.4964e-06 | deg |
node | 108.6817121249276 | 4.2367e-05 | deg |
peri | 257.8190642903555 | 4.2949e-05 | deg |
M | 129.347890035453 | 4.5926e-06 | deg |
tp | 2458784.480115998261 (2019-Oct-27.98011600) | 1.4631e-05 | TDB |
period | 1157.863171943324 3.17 | 3.6454e-06 9.981e-09 | d yr |
n | .3109175667067694 | 9.7889e-10 | deg/d |
Q | 2.932216094657863 | 6.1545e-09 | au |
|
| | Orbit Determination Parameters
Additional Information
|